Dewpoint
60 61 61 61 61 62 61 62 61 62 61 61 59 58 59 58 57 57 58 59 58 60 61 60 60 60 59 60 60 59 51 23 21 17 14 16 37 55 53 54 55 58 57 42 27 21 19 20 23 24 11 13 20 21 25 13 29 28 24 20 18 21 15 18 10 18 18 18 22 28 29 32 29 26 26 22 22 23 24 23 24 22 20 16 16 22 20 20
60 60 61 61 61 61 61 62 62 61 59 59 57 58 58 58 58 58 58 58 58 59 60 60 59 59 60 60 58 58 33 23 18 17 15 31 55 56 55 57 58 59 49 23 27 26 18 17 24 20 11 14 19 19 18 16 20 23 20 16 18 19 20 18 10 16 14 12 23 27 26 30 29 24 23 22 22 22 22 23 24 21 21 18 20 19 18 17
59 59 59 60 60 60 61 61 62 62 59 59 57 58 58 58 58 58 57 57 61 60 60 59 59 57 57 59 57 57 30 17 14 13 13 49 55 55 57 58 57 58 27 22 29 25 21 22 27 19 16 10 16 18 15 13 20 21 11 7 18 21 20 12 9 10 13 17 23 25 23 25 24 23 17 21 21 20 20 22 19 21 20 19 20 18 16 16
59 59 58 59 59 59 59 60 61 61 59 58 57 58 58 58 57 57 57 58 57 60 59 59 59 57 57 57 58 43 20 15 10 17 15 47 54 55 55 55 57 55 38 34 33 33 33 26 22 17 19 16 18 14 12 13 13 19 15 12 17 23 7 7 8 9 11 21 21 23 19 23 21 21 18 21 17 17 18 21 20 19 20 19 20 18 16 15
59 59 59 59 59 60 59 59 60 60 60 57 58 58 58 58 58 57 58 58 58 59 59 59 58 58 56 58 55 25 16 4 9 18 16 49 55 57 55 57 55 44 30 32 35 27 26 23 19 20 18 12 20 14 9 8 8 18 12 20 15 10 6 8 10 11 11 12 17 18 17 18 17 15 19 16 14 13 18 19 21 19 17 18 20 18 16 14
57 58 58 58 58 58 58 59 58 60 61 61 59 58 57 57 57 57 58 58 58 58 58 58 58 57 57 56 37 33 16 0 21 14 45 51 52 51 51 57 55 40 33 24 23 19 13 11 12 17 17 12 9 9 10 7 13 8 15 8 11 8 6 10 11 11 11 13 15 16 17 15 17 16 18 17 16 16 24 22 23 21 20 17 20 18 16 14
57 58 57 58 59 59 60 60 59 58 59 59 59 58 57 57 57 58 59 58 58 58 58 58 57 57 55 50 38 26 21 18 13 17 47 49 49 46 49 52 42 40 31 18 18 16 14 9 12 22 21 18 17 9 13 20 21 10 10 6 5 8 6 10 10 11 9 9 12 16 14 11 14 12 17 17 17 19 22 27 29 28 25 21 20 18 17 15
57 56 58 58 57 58 58 59 60 60 60 58 58 56 57 57 57 59 61 61 59 58 58 58 58 56 53 34 26 24 21 14 11 22 43 45 30 28 37 28 21 23 19 18 18 16 13 10 7 24 18 13 18 11 23 15 20 16 14 11 5 9 9 11 10 9 10 9 11 10 7 8 13 10 10 8 8 10 12 20 29 21 19 20 20 19 19 17
57 58 58 57 57 57 57 56 57 58 59 60 58 59 55 56 57 58 59 60 61 60 58 59 57 57 50 30 20 14 14 17 16 17 25 20 21 23 22 17 19 18 19 19 20 17 13 16 15 14 12 18 18 21 22 12 13 21 18 10 7 7 8 9 9 11 11 10 11 7 6 8 9 12 9 8 9 11 12 10 21 18 15 16 19 19 19 18
57 59 56 57 57 57 57 57 58 58 59 59 60 59 60 57 58 57 57 57 59 59 58 59 57 55 35 27 26 14 19 21 17 20 22 22 21 20 20 21 16 17 16 16 17 18 14 13 15 15 17 18 23 21 26 13 12 24 20 14 6 11 8 10 7 7 11 11 10 6 6 8 9 9 8 13 14 16 11 12 21 19 15 14 18 20 20 19
58 58 56 57 57 57 57 57 56 57 58 57 57 58 59 59 58 57 58 59 57 57 59 58 57 43 28 24 19 14 19 15 21 20 22 23 20 18 19 21 17 17 18 16 17 19 20 18 18 22 25 19 19 18 23 22 23 18 19 18 16 19 14 8 7 7 8 7 9 7 7 10 11 13 9 10 12 15 10 11 15 22 20 16 15 16 19 18
58 58 56 56 57 57 56 57 56 55 56 57 57 57 58 58 57 58 59 59 59 57 57 56 56 30 28 22 17 14 19 14 23 20 21 22 20 21 24 23 16 17 17 16 17 20 22 23 28 26 16 22 17 19 17 26 16 16 16 10 14 22 14 10 6 7 8 7 9 8 10 13 13 11 11 12 14 12 11 11 12 14 21 21 19 19 20 20
58 57 56 56 56 57 57 56 56 55 55 58 57 58 57 57 57 57 58 57 56 56 56 56 49 38 30 22 23 18 17 18 20 18 17 22 20 21 21 20 18 18 18 17 16 22 29 30 27 26 30 23 21 12 19 18 19 20 17 12 15 20 19 15 11 9 8 7 11 15 8 11 13 10 10 12 13 11 10 10 10 12 17 16 16 17 18 20
57 58 56 57 56 56 56 56 55 55 56 56 57 55 56 56 56 57 57 57 56 56 56 55 38 32 25 21 22 17 26 29 19 16 16 23 19 17 19 21 20 19 20 15 15 20 29 27 26 30 33 23 20 29 22 24 22 10 17 23 12 13 15 17 11 9 8 13 16 17 9 11 12 11 13 15 14 11 10 10 11 12 13 14 16 16 16 17
57 57 57 57 57 57 58 57 55 55 54 55 55 55 55 55 56 56 58 57 56 56 56 51 35 30 24 25 21 20 48 23 16 16 18 19 19 18 19 21 20 20 19 18 15 19 27 28 25 22 19 27 26 19 23 22 22 22 16 16 20 13 19 19 25 8 8 12 18 19 11 12 12 12 14 15 12 11 10 11 11 12 13 14 15 15 15 16
57 57 58 57 56 55 55 55 54 54 54 54 55 55 55 56 56 56 57 56 56 54 46 36 35 29 22 18 12 30 16 14 15 17 18 22 21 19 21 21 20 18 17 16 15 17 24 26 20 22 25 20 24 20 19 18 20 22 14 13 12 15 18 13 17 22 15 16 14 15 13 15 11 13 14 12 11 11 11 12 12 13 14 14 15 16 17 17
56 56 58 57 56 55 55 54 53 53 54 54 54 55 56 56 56 57 55 54 49 49 28 27 32 31 17 21 17 13 13 15 17 17 17 21 22 21 21 19 17 18 19 15 15 15 16 16 23 25 29 20 26 23 13 15 14 12 18 13 19 11 14 11 18 21 20 15 13 17 13 12 13 14 13 10 12 12 13 14 14 15 15 16 17 17 17 17
56 56 57 56 56 55 55 54 54 54 54 54 55 55 54 57 55 50 44 45 45 42 39 37 33 19 15 23 13 13 15 16 18 18 18 19 23 22 21 20 19 18 21 17 14 11 17 14 27 17 19 25 19 16 9 12 10 3 9 13 15 15 14 13 12 16 18 20 14 16 13 13 13 14 13 10 12 14 15 15 16 16 17 17 17 17 18 20
56 56 56 56 56 55 54 54 54 54 54 55 55 56 53 50 45 36 35 37 34 30 20 22 24 15 14 17 22 19 18 18 18 19 18 20 22 23 22 20 20 16 18 16 18 12 19 23 24 19 14 19 17 19 16 21 17 11 13 12 15 8 10 10 17 21 19 16 17 17 15 15 15 15 14 12 15 17 17 17 17 17 17 17 18 20 22 22
58 56 56 55 56 55 54 54 54 54 56 51 45 38 36 30 31 30 35 31 28 31 25 27 29 28 22 14 15 17 19 17 14 16 19 20 24 22 19 23 27 27 21 19 24 19 25 14 15 16 17 20 22 20 22 18 18 22 21 17 15 14 14 17 20 22 22 16 15 16 17 16 15 15 15 14 16 16 17 17 18 19 20 21 21 21 20 20
56 57 55 55 55 55 54 54 54 55 56 44 39 31 16 18 16 17 23 25 25 33 29 29 28 19 18 16 17 20 17 17 16 15 18 20 25 20 18 22 27 20 21 26 20 28 26 16 20 21 19 20 21 24 23 20 21 16 14 12 11 15 9 14 19 24 24 16 16 16 14 15 16 16 16 14 16 15 16 18 18 18 18 18 17 18 18 19
56 56 55 55 55 55 54 54 54 55 52 42 38 29 30 28 24 23 21 16 23 32 32 29 31 23 24 19 20 20 17 15 15 17 19 19 16 11 21 20 20 13 24 26 24 25 21 19 26 22 25 25 24 23 20 16 16 20 13 14 10 14 17 18 20 22 24 19 17 16 14 16 15 16 16 15 15 16 16 17 16 16 16 16 17 18 19 19
56 56 55 55 55 55 54 54 55 53 41 39 37 37 36 40 44 44 26 19 24 32 31 27 19 19 21 22 24 23 15 17 17 17 19 21 18 21 25 21 22 25 24 26 21 20 15 22 24 26 25 20 21 23 19 20 20 10 13 9 10 17 10 12 20 21 20 16 15 16 14 15 15 16 16 18 18 18 20 19 18 18 16 16 17 18 19 19
54 54 55 55 55 55 54 54 52 44 41 40 40 38 41 43 43 41 29 19 19 26 32 31 21 23 23 20 22 19 15 19 18 17 21 19 20 21 26 20 19 20 18 25 23 19 16 21 21 24 23 18 18 20 19 16 13 21 16 13 12 12 14 13 15 19 22 16 20 15 13 11 14 14 15 16 17 17 18 17 17 18 20 19 18 18 18 19
53 53 54 54 55 55 54 50 37 40 40 38 40 41 42 43 44 41 25 14 19 28 33 32 28 25 21 27 27 22 22 26 23 20 23 21 22 26 26 30 17 14 24 25 21 19 19 23 24 22 21 21 16 15 18 16 12 16 19 16 14 15 16 15 15 12 9 8 16 12 6 5 12 14 15 15 15 15 16 16 16 16 14 14 12 14 16 19
53 53 53 55 55 54 51 32 19 41 34 31 39 44 43 42 43 39 27 19 10 23 26 27 25 20 21 23 22 26 28 25 24 19 31 22 28 22 25 24 18 12 23 22 20 20 19 22 23 21 22 21 19 15 17 17 13 10 14 19 17 17 13 13 12 10 6 2 12 15 3 1 11 13 14 15 14 14 16 17 16 15 14 14 14 14 15 18
53 53 53 55 55 51 24 22 22 36 24 32 44 44 42 43 43 38 23 16 12 20 18 29 24 26 23 24 23 24 12 14 24 25 16 23 26 33 15 17 25 27 25 21 17 4 21 20 20 21 19 19 16 12 15 18 15 14 18 18 13 13 13 12 12 10 11 16 18 16 8 3 2 12 15 15 14 15 16 17 16 15 14 14 14 15 16 19
52 53 53 55 53 46 23 30 32 33 23 32 43 41 42 42 44 30 18 -1 0 26 15 23 26 28 27 29 27 22 21 24 15 25 20 24 30 25 20 17 17 19 26 13 4 18 22 20 19 18 18 15 12 13 18 19 12 17 18 18 16 15 14 13 13 12 14 10 11 10 17 6 5 10 15 14 12 14 15 16 16 16 16 16 16 15 16 19
53 53 53 54 54 50 42 37 32 30 38 42 40 42 44 42 33 22 17 2 10 21 24 27 34 26 29 30 27 29 25 28 18 22 31 29 27 23 17 23 25 24 23 17 16 18 24 19 22 19 16 14 17 17 18 17 12 16 19 20 20 19 18 15 13 11 8 8 4 9 11 3 6 13 13 14 11 13 15 16 17 17 17 16 16 15 17 20
55 53 53 53 47 39 41 42 37 34 42 39 41 43 42 37 27 18 5 -0 25 6 28 25 22 21 29 25 24 26 20 23 28 29 27 24 23 28 28 32 26 21 18 24 20 21 22 30 28 20 18 16 16 16 17 17 16 21 19 15 17 14 15 15 12 7 4 1 7 10 13 7 3 11 12 11 12 14 16 17 18 18 18 18 18 16 17 19
55 54 52 51 37 37 35 29 29 42 41 42 43 42 36 28 16 14 -0 6 22 19 25 20 18 27 24 22 17 24 24 25 25 26 23 25 19 23 24 22 23 21 20 18 16 20 23 23 19 19 27 24 17 18 22 22 21 15 13 11 8 9 6 9 7 6 -1 -3 4 8 10 9 2 6 13 14 16 16 17 16 17 18 18 18 17 18 18 19
54 54 53 45 43 35 22 24 28 43 42 42 41 34 25 8 22 2 -2 22 9 15 16 16 22 23 22 24 17 17 16 22 23 24 21 20 19 15 15 12 14 8 10 10 10 18 19 19 21 21 30 18 19 12 16 20 18 16 12 10 2 3 1 -6 -2 -3 -3 -0 6 10 11 7 8 9 14 16 17 17 18 18 17 17 18 17 16 16 19 20
53 53 51 47 44 36 38 32 40 42 44 41 33 27 17 13 -10 5 10 15 3 18 16 20 20 22 21 16 17 20 22 15 21 22 23 21 20 19 21 18 17 5 1 10 10 9 12 17 18 19 20 24 17 9 8 7 9 11 9 6 1 -3 -9 -7 -2 -4 -3 5 7 7 7 5 9 13 15 15 17 18 18 18 19 18 18 17 16 16 17 19
53 49 38 42 41 37 39 42 40 42 40 36 29 11 17 7 -3 19 7 13 13 23 23 21 21 20 19 10 17 20 9 14 18 16 20 16 17 12 16 17 20 16 10 13 7 7 1 6 5 19 14 20 18 10 9 8 11 11 12 6 2 3 -3 -5 -9 -6 -2 5 5 7 3 -1 6 11 17 16 17 18 18 19 19 19 19 17 14 14 15 17
52 44 41 42 40 43 42 41 41 42 36 30 20 16 5 -1 4 6 7 12 18 21 18 21 20 14 13 18 17 18 10 10 17 16 16 15 11 15 14 10 18 18 16 8 8 6 5 4 10 18 18 17 17 20 18 12 10 12 12 12 6 1 8 -1 -2 -4 -4 1 1 0 1 7 10 16 18 17 17 18 19 19 19 17 18 15 13 14 14 16
48 42 45 38 40 38 41 42 39 40 33 24 19 13 6 6 1 8 9 20 20 17 19 21 18 12 10 14 16 12 16 10 16 12 9 16 16 14 17 16 15 18 9 3 4 4 10 2 13 19 17 14 15 16 19 15 3 7 8 2 4 14 8 -0 9 9 5 -2 1 -2 9 11 13 13 14 15 15 15 15 15 14 14 15 14 14 13 13 15
39 37 29 34 34 34 40 42 41 38 29 22 17 6 10 10 10 15 31 18 18 20 16 8 9 6 6 7 10 14 14 15 14 9 5 14 7 17 18 20 18 18 15 9 9 8 4 6 13 13 13 15 14 19 18 17 13 11 4 7 14 14 11 7 -0 -3 -9 -2 1 4 4 5 6 2 13 13 13 14 14 13 12 12 13 13 13 13 14 15
37 35 32 35 31 39 42 39 39 33 28 24 18 27 24 15 25 24 27 24 20 19 12 9 6 11 7 9 14 11 16 6 12 13 7 15 10 20 19 17 19 15 19 20 5 9 9 5 9 12 14 16 17 17 12 16 19 11 9 10 8 -0 4 8 1 -3 -2 -3 -2 2 2 4 8 8 12 12 12 12 11 11 11 11 12 12 12 12 14 15
34 35 27 30 37 40 41 36 31 30 21 19 15 19 20 22 25 22 24 26 21 20 12 13 9 11 12 10 13 16 15 11 12 10 5 9 7 18 16 18 19 21 22 18 13 15 11 2 9 11 13 14 11 10 6 11 13 17 16 9 13 7 2 0 1 1 4 1 -2 2 -3 5 6 9 13 12 11 11 9 9 10 10 11 12 12 13 14 15
26 19 21 31 37 40 36 34 27 21 20 14 10 14 21 20 24 26 27 26 20 15 14 14 18 12 16 17 14 12 16 14 15 12 13 13 13 18 16 21 16 18 21 21 12 17 10 8 1 8 10 10 8 13 8 9 5 7 7 5 7 2 11 9 3 2 4 -3 -3 -3 2 -2 12 15 13 12 10 9 9 9 9 11 11 11 12 13 15 16
31 27 28 36 37 41 35 28 23 20 18 19 21 21 27 21 27 28 28 30 28 25 17 18 19 14 17 17 15 20 14 16 16 12 14 11 11 7 19 19 23 17 19 14 14 13 4 8 5 9 8 7 7 12 11 10 10 11 12 6 11 3 4 3 6 -0 0 2 3 -1 6 2 13 14 11 10 11 10 10 9 10 10 11 11 11 14 15 16
25 12 17 29 35 34 29 21 16 20 19 15 14 25 28 35 23 23 26 27 25 24 26 23 23 20 22 20 18 17 17 14 15 12 14 10 15 10 14 20 22 23 12 10 9 14 12 10 9 7 8 8 8 11 14 12 13 13 10 8 11 5 5 2 0 3 2 4 5 9 5 3 14 15 12 11 10 10 10 10 10 10 11 10 11 13 16 17
21 15 28 33 33 31 20 12 22 22 15 19 26 27 28 27 24 24 24 24 22 25 22 23 22 15 16 18 18 13 17 12 16 11 14 16 17 17 19 20 22 19 16 14 12 18 22 6 2 6 8 7 9 10 13 14 14 10 11 12 9 9 6 6 3 2 3 2 4 4 4 5 14 17 14 11 11 10 10 10 10 10 11 10 10 12 14 16
25 25 24 33 31 30 18 3 7 14 20 24 25 26 28 28 26 22 24 25 22 20 19 20 20 19 18 21 18 16 17 7 13 13 12 15 12 24 22 24 23 20 13 13 11 15 6 9 7 1 1 7 6 8 10 12 11 10 10 12 10 6 4 2 1 -1 3 0 7 3 0 -6 13 15 14 13 9 9 10 10 11 10 11 9 10 12 15 15
22 23 25 27 27 27 17 19 16 13 20 17 20 18 20 22 27 25 25 25 24 21 17 17 19 21 19 21 20 21 22 14 12 16 12 11 12 24 22 21 20 18 22 24 31 26 6 10 5 1 -1 0 1 1 4 6 5 12 12 11 9 6 4 5 5 2 2 2 6 -1 0 6 13 16 13 12 9 9 9 10 12 11 11 10 9 13 15 14
16 -0 14 21 22 24 26 25 23 21 14 12 9 14 20 18 22 25 26 25 24 24 19 21 21 19 21 20 19 21 20 21 14 11 11 12 14 18 23 20 22 23 25 30 26 13 4 8 11 7 6 7 9 9 11 15 13 8 11 10 8 7 3 3 1 1 5 -2 1 4 7 9 11 15 15 11 11 9 9 10 10 11 11 11 10 13 14 12
20 14 10 14 22 21 20 24 25 22 15 21 12 13 12 18 19 21 26 16 24 22 23 22 23 16 16 19 18 17 20 19 19 16 13 11 12 14 17 23 24 27 31 29 22 8 4 4 7 10 9 11 11 10 11 16 13 13 9 9 8 7 5 3 4 5 6 0 6 6 10 6 10 12 12 10 9 9 10 10 11 11 11 11 10 12 17 10
11 14 15 15 15 9 18 18 25 24 24 18 13 19 16 19 18 12 18 23 24 24 15 18 21 21 20 20 17 10 12 16 17 10 11 10 12 15 16 18 23 26 21 15 14 9 4 5 5 8 6 8 12 13 13 13 13 13 11 10 9 9 7 5 2 6 9 4 8 9 11 9 11 12 11 9 9 9 9 10 11 11 11 11 10 10 9 8
19 20 21 24 11 15 16 17 26 23 22 23 24 20 16 20 17 18 16 19 21 22 19 8 15 20 23 23 16 10 16 8 10 10 12 11 9 13 9 11 21 20 17 14 13 5 8 3 4 7 11 13 12 11 12 13 13 11 9 12 13 10 7 6 7 7 9 8 10 11 11 10 11 12 9 9 10 10 10 11 11 12 11 11 9 8 7 5
17 13 11 25 23 21 21 22 25 22 16 22 11 19 21 21 20 22 21 19 11 14 22 17 18 22 23 22 19 14 16 15 13 13 14 15 15 11 10 12 11 15 16 14 12 12 7 6 13 7 5 9 10 11 11 13 11 10 12 12 12 10 11 10 9 10 9 7 7 9 9 9 11 11 10 10 10 10 11 11 11 12 11 10 8 7 5 3
24 24 24 21 17 17 21 21 21 20 16 17 16 16 24 21 22 23 22 22 15 15 22 19 21 22 22 22 21 21 22 21 22 20 21 19 14 17 9 11 17 14 12 11 8 9 6 8 1 0 4 7 8 10 10 11 10 10 10 10 11 10 7 10 5 10 8 8 10 6 3 5 12 11 11 10 10 10 10 11 12 12 10 8 6 4 3 2
29 31 27 26 19 22 13 19 20 19 12 15 20 21 20 21 23 23 11 22 26 24 25 23 22 22 20 16 16 21 23 24 24 24 23 22 21 21 20 17 18 16 11 11 8 9 5 5 6 2 4 0 4 9 10 6 6 3 4 9 11 12 11 11 11 12 12 11 7 4 4 11 11 11 10 9 10 10 12 12 12 12 7 4 3 2 2 1